Content
SEND FEEDBACK

Daily
Averages
Monthly
Summary
United States of America

CALERA, ALABAMA


Home > North America > United States > Alabama
Elevation: 538 feet     Latitude: 33 05N     Longitude: 086 47W

WEATHER
 
SELECT A DAY
Number of Records: 178,983;   Date Range: 6/17/98 - 12/17/14
 
SHARE

PRINT THIS DATA

[ ← Previous Day ]
WEATHER ALMANAC - JANUARY 3, 2013
[ Next Day → ]
[ °C ]   °F
Weather ElementAverageHighLow
Temperature38.4 °F46 °F (3:53 pm)33.1 °F (9:53 pm)
Dewpoint29.4 °F34 °F (12:53 am)25 °F (3:53 pm)
Humidity71.4 %86 % (12:53 am)44 % (3:53 pm)
Barometer30.29 in30.38 in (8:53 pm)30.20 in (12:53 am)
Wind Speed4.2 mph9.2 mph (8:53 am)
Weather ElementAverage
Visibility7.4 mi
Wind DirectionSW (226.4 °)

Weather ElementTotal
Precipitation---
Heating Degree Days25.5 (Base 65)
Averaged from 25 records on January 3, 2013
WEATHER CONDITIONS BREAKOUT
WIND DIRECTION BREAKOUT
WEATHER BY HOUR - JANUARY 3, 2013
[ °C ]   °F
Local TimeTemperatureDewpointHumidityBarometerVisibilityWind DirectionWind SpeedGust SpeedPrecipitationEventsConditions
12:53 AM37.9 °F34.0 °F86 %30.20 in5.0 miNW (320°)5.8 mphOvercast
1:53 AM37.9 °F34.0 °F86 %30.21 in5.0 miCalmOvercast
2:53 AM37.9 °F34.0 °F86 %30.22 in5.0 miCalmOvercast
3:53 AM37.9 °F33.1 °F83 %30.22 in5.0 miNNW (340°)4.6 mphHaze
4:53 AM37.0 °F33.1 °F86 %30.24 in5.0 miNW (310°)5.8 mphOvercast
5:53 AM37.0 °F32.0 °F82 %30.23 in5.0 miNNW (340°)4.6 mphHaze
6:32 AM37.4 °F32.0 °F81 %30.23 in5.0 miNW (320°)5.8 mphHaze
6:53 AM36.0 °F32.0 °F86 %30.25 in5.0 miNW (320°)4.6 mphPartly Cloudy
7:53 AM36.0 °F30.9 °F82 %30.26 in4.0 miNNW (340°)8.1 mphHaze
8:53 AM37.0 °F30.9 °F79 %30.29 in5.0 miNNW (330°)9.2 mphHaze
9:53 AM37.9 °F30.9 °F76 %30.30 in5.0 miNNW (330°)5.8 mphHaze
10:53 AM39.9 °F28.9 °F65 %30.31 in6.0 miNNW (330°)6.9 mphHaze
11:53 AM41.0 °F28.9 °F62 %30.28 in7.0 miNNW (340°)8.1 mphClear
12:53 PM42.1 °F28.0 °F58 %30.27 in9.0 miNNW (330°)6.9 mphClear
1:53 PM44.1 °F26.1 °F49 %30.27 in10.0 miNorth (360°)6.9 mphClear
2:53 PM45.0 °F26.1 °F48 %30.29 in10.0 miNNW (330°)8.1 mphClear
3:53 PM46.0 °F25.0 °F44 %30.30 in10.0 miNNW (340°)6.9 mphClear
4:53 PM43.0 °F25.0 °F49 %30.31 in10.0 miNorth (350°)3.5 mphClear
5:53 PM37.9 °F27.0 °F65 %30.32 in10.0 miCalmClear
6:53 PM36.0 °F28.0 °F73 %30.34 in10.0 miCalmClear
7:53 PM35.1 °F28.0 °F76 %30.37 in10.0 miCalmClear
8:53 PM35.1 °F27.0 °F72 %30.38 in10.0 miNNW (330°)4.6 mphClear
9:53 PM33.1 °F26.1 °F75 %30.38 in9.0 miCalmClear
10:53 PM35.1 °F27.0 °F72 %30.37 in9.0 miCalmClear
11:53 PM37.0 °F26.1 °F65 %30.35 in10.0 miCalmClear
Hourly data recorded from KEET, located miles away from Calera, Alabama







STORIES FROM OUR PARTNERS